• In Belarus
  • List of Countries
  • For 7 days
  • Water Temperature
  • Weather Map
  • Weather Widgets
  • user-avatar
    Login

    Hourly Weather Zhetisay

    Today, 18 September, Wednesday

    Time Temperature Precipitation Wind Pressure Humidity
    00:00 +18°C° 0 mm 2 mps 738 mmHg 24%
    01:00 +18°C° 0 mm 1 mps 738 mmHg 25%
    02:00 +16°C° 0 mm 1 mps 738 mmHg 26%
    03:00 +15°C° 0 mm 0 mps 737 mmHg 27%
    04:00 +14°C° 0 mm 0 mps 737 mmHg 27%
    05:00 +14°C° 0 mm 0 mps 737 mmHg 27%
    06:00 +16°C° 0 mm 0 mps 737 mmHg 25%
    07:00 +18°C° 0 mm 0 mps 738 mmHg 22%
    08:00 +20°C° 0 mm 0 mps 738 mmHg 20%
    09:00 +25°C° 0 mm 1 mps 738 mmHg 18%
    10:00 +28°C° 0 mm 1 mps 737 mmHg 15%
    11:00 +32°C° 0 mm 1 mps 738 mmHg 14%
    12:00 +33°C° 0 mm 1 mps 737 mmHg 13%
    13:00 +34°C° 0 mm 1 mps 737 mmHg 12%
    14:00 +36°C° 0 mm 2 mps 737 mmHg 11%
    15:00 +35°C° 0 mm 1 mps 737 mmHg 11%
    16:00 +35°C° 0 mm 1 mps 737 mmHg 11%
    17:00 +35°C° 0 mm 1 mps 737 mmHg 11%
    18:00 +32°C° 0 mm 1 mps 737 mmHg 14%
    19:00 +29°C° 0 mm 1 mps 737 mmHg 16%
    20:00 +25°C° 0 mm 1 mps 737 mmHg 19%
    21:00 +25°C° 0 mm 1 mps 738 mmHg 19%
    22:00 +24°C° 0 mm 1 mps 738 mmHg 19%
    23:00 +23°C° 0 mm 1 mps 738 mmHg 20%

    Tomorrow, 19 September, Thursday

    Time Temperature Precipitation Wind Pressure Humidity
    00:00 +23°C° 0 mm 1 mps 738 mmHg 21%
    01:00 +22°C° 0 mm 1 mps 737 mmHg 23%
    02:00 +19°C° 0 mm 0 mps 737 mmHg 25%
    03:00 +21°C° 0 mm 1 mps 738 mmHg 25%
    04:00 +21°C° 0 mm 1 mps 738 mmHg 24%
    05:00 +21°C° 0 mm 1 mps 738 mmHg 24%
    06:00 +23°C° 0 mm 1 mps 738 mmHg 22%
    07:00 +25°C° 0 mm 1 mps 738 mmHg 20%
    08:00 +27°C° 0 mm 1 mps 739 mmHg 17%
    09:00 +30°C° 0 mm 1 mps 739 mmHg 15%
    10:00 +33°C° 0 mm 1 mps 739 mmHg 13%
    11:00 +36°C° 0 mm 1 mps 739 mmHg 10%
    12:00 +38°C° 0 mm 2 mps 739 mmHg 10%
    13:00 +39°C° 0 mm 2 mps 739 mmHg 9%
    14:00 +39°C° 0 mm 3 mps 738 mmHg 9%
    15:00 +39°C° 0 mm 3 mps 738 mmHg 9%
    16:00 +38°C° 0 mm 4 mps 738 mmHg 9%
    17:00 +38°C° 0 mm 4 mps 738 mmHg 9%
    18:00 +35°C° 0 mm 4 mps 738 mmHg 12%
    19:00 +32°C° 0 mm 4 mps 738 mmHg 15%
    20:00 +28°C° 0 mm 3 mps 738 mmHg 18%
    21:00 +26°C° 0 mm 3 mps 738 mmHg 23%
    22:00 +25°C° 0 mm 2 mps 738 mmHg 27%
    23:00 +23°C° 0 mm 2 mps 738 mmHg 31%

    Day after tomorrow, 20 September, Friday

    Time Temperature Precipitation Wind Pressure Humidity
    00:00 +23°C° 0 mm 2 mps 738 mmHg 33%
    01:00 +21°C° 0 mm 2 mps 738 mmHg 35%
    02:00 +20°C° 0 mm 2 mps 738 mmHg 37%
    03:00 +20°C° 0 mm 2 mps 738 mmHg 39%
    04:00 +19°C° 0 mm 2 mps 738 mmHg 40%
    05:00 +20°C° 0 mm 1 mps 738 mmHg 42%
    06:00 +20°C° 0 mm 2 mps 738 mmHg 38%
    07:00 +23°C° 0 mm 2 mps 738 mmHg 35%
    08:00 +24°C° 0 mm 2 mps 738 mmHg 31%
    09:00 +27°C° 0 mm 2 mps 738 mmHg 27%
    10:00 +30°C° 0 mm 2 mps 738 mmHg 22%
    11:00 +34°C° 0 mm 3 mps 738 mmHg 18%
    12:00 +36°C° 0 mm 3 mps 738 mmHg 16%
    13:00 +37°C° 0 mm 3 mps 737 mmHg 15%
    14:00 +38°C° 0 mm 4 mps 737 mmHg 13%
    15:00 +38°C° 0 mm 4 mps 737 mmHg 13%
    16:00 +38°C° 0 mm 4 mps 736 mmHg 13%
    17:00 +37°C° 0 mm 4 mps 736 mmHg 13%
    18:00 +34°C° 0 mm 4 mps 736 mmHg 15%
    19:00 +30°C° 0 mm 4 mps 737 mmHg 18%
    20:00 +27°C° 0 mm 4 mps 737 mmHg 21%
    21:00 +26°C° 0 mm 3 mps 736 mmHg 23%
    22:00 +25°C° 0 mm 3 mps 736 mmHg 25%
    23:00 +23°C° 0 mm 2 mps 736 mmHg 27%

    21 September, Saturday

    Time Temperature Precipitation Wind Pressure Humidity
    00:00 +23°C° 0 mm 2 mps 736 mmHg 29%
    01:00 +21°C° 0 mm 2 mps 735 mmHg 30%
    02:00 +21°C° 0 mm 1 mps 735 mmHg 32%
    03:00 +21°C° 0 mm 1 mps 735 mmHg 33%
    04:00 +20°C° 0 mm 1 mps 735 mmHg 34%
    05:00 +20°C° 0 mm 1 mps 735 mmHg 35%
    06:00 +21°C° 0 mm 1 mps 735 mmHg 31%
    07:00 +23°C° 0 mm 1 mps 735 mmHg 28%
    08:00 +25°C° 0 mm 1 mps 735 mmHg 25%
    09:00 +28°C° 0 mm 1 mps 735 mmHg 21%
    10:00 +32°C° 0 mm 1 mps 735 mmHg 17%
    11:00 +35°C° 0 mm 1 mps 735 mmHg 14%
    12:00 +36°C° 0 mm 1 mps 734 mmHg 13%
    13:00 +39°C° 0 mm 2 mps 733 mmHg 12%
    14:00 +40°C° 0 mm 2 mps 733 mmHg 11%
    15:00 +40°C° 0 mm 2 mps 733 mmHg 11%
    16:00 +40°C° 0 mm 1 mps 732 mmHg 11%
    17:00 +39°C° 0 mm 1 mps 732 mmHg 11%
    18:00 +35°C° 0 mm 1 mps 732 mmHg 13%
    19:00 +32°C° 0 mm 1 mps 732 mmHg 15%
    20:00 +28°C° 0 mm 1 mps 732 mmHg 17%
    21:00 +27°C° 0 mm 1 mps 732 mmHg 18%
    22:00 +26°C° 0 mm 1 mps 732 mmHg 19%
    23:00 +25°C° 0 mm 1 mps 731 mmHg 20%

    22 September, Sunday

    Time Temperature Precipitation Wind Pressure Humidity
    00:00 +25°C° 0 mm 1 mps 731 mmHg 21%
    01:00 +25°C° 0 mm 2 mps 731 mmHg 21%
    02:00 +24°C° 0 mm 2 mps 731 mmHg 21%
    03:00 +24°C° 0 mm 2 mps 731 mmHg 22%
    04:00 +24°C° 0 mm 2 mps 731 mmHg 22%
    05:00 +23°C° 0 mm 2 mps 731 mmHg 22%
    06:00 +25°C° 0 mm 2 mps 732 mmHg 19%
    07:00 +27°C° 0 mm 2 mps 732 mmHg 17%
    08:00 +29°C° 0 mm 2 mps 733 mmHg 15%
    09:00 +32°C° 0 mm 2 mps 733 mmHg 12%
    10:00 +37°C° 0 mm 3 mps 733 mmHg 10%
    11:00 +40°C° 0 mm 3 mps 733 mmHg 8%
    12:00 +42°C° 0 mm 4 mps 733 mmHg 8%
    13:00 +43°C° 0 mm 4 mps 733 mmHg 7%
    14:00 +45°C° 0 mm 5 mps 733 mmHg 7%
    15:00 +43°C° 0 mm 8 mps 734 mmHg 11%
    16:00 +39°C° 0 mm 10 mps 735 mmHg 15%
    17:00 +36°C° 0 mm 13 mps 735 mmHg 20%
    18:00 +31°C° 0 mm 10 mps 737 mmHg 29%
    19:00 +27°C° 0 mm 7 mps 738 mmHg 38%
    20:00 +22°C° 0 mm 5 mps 740 mmHg 48%
    21:00 +21°C° 0 mm 4 mps 740 mmHg 48%
    22:00 +20°C° 0 mm 4 mps 741 mmHg 48%
    23:00 +20°C° 0 mm 3 mps 741 mmHg 48%

    23 September, Monday

    Time Temperature Precipitation Wind Pressure Humidity
    00:00 +19°C° 0 mm 3 mps 741 mmHg 49%
    01:00 +18°C° 0 mm 3 mps 741 mmHg 49%
    02:00 +17°C° 0 mm 4 mps 741 mmHg 50%
    03:00 +16°C° 0 mm 3 mps 741 mmHg 51%
    04:00 +14°C° 0 mm 3 mps 741 mmHg 53%
    05:00 +14°C° 0 mm 3 mps 741 mmHg 55%
    06:00 +16°C° 0 mm 2 mps 741 mmHg 51%
    07:00 +17°C° 0 mm 2 mps 741 mmHg 48%
    08:00 +19°C° 0 mm 1 mps 741 mmHg 44%
    09:00 +21°C° 0 mm 1 mps 741 mmHg 39%
    10:00 +24°C° 0 mm 1 mps 740 mmHg 34%
    11:00 +26°C° 0 mm 1 mps 740 mmHg 28%
    12:00 +27°C° 0 mm 2 mps 740 mmHg 27%
    13:00 +28°C° 0 mm 2 mps 739 mmHg 25%
    14:00 +29°C° 0 mm 2 mps 739 mmHg 24%
    15:00 +29°C° 0 mm 3 mps 739 mmHg 24%
    16:00 +29°C° 0 mm 3 mps 739 mmHg 24%
    17:00 +29°C° 0 mm 3 mps 738 mmHg 25%
    18:00 +26°C° 0 mm 3 mps 739 mmHg 28%
    19:00 +24°C° 0 mm 3 mps 739 mmHg 32%
    20:00 +21°C° 0 mm 3 mps 739 mmHg 35%
    21:00 +20°C° 0 mm 3 mps 739 mmHg 34%
    22:00 +19°C° 0 mm 3 mps 739 mmHg 33%
    23:00 +18°C° 0 mm 3 mps 739 mmHg 32%
    Show more